Pluckemin, NJ

2:59 PM EDT on September 26, 2016 (GMT -0400)
Somerset

Weather History for KSMQ - February, 2008

Change the Weather History Date:

Sunday, February 24, 2008

  Actual Average Record
Temperature  
Mean Temperature 24 °F -  
Max Temperature 37 °F 44 °F 70 °F (1985)
Min Temperature 10 °F 24 °F -7 °F (2015)
Degree Days  
Heating Degree Days 42    
Moisture  
Dew Point 16 °F    
Average Humidity 69    
Maximum Humidity 89    
Minimum Humidity 43    
Precipitation  
Precipitation 0.26 in - - ()
Sea Level Pressure  
Sea Level Pressure 30.12 in    
Wind  
Wind Speed 2 mph (SW)    
Max Wind Speed 8 mph    
Max Gust Speed -    
Visibility 10 miles    
Events      
Averages and records for this station are not official NWS values.
T = Trace of Precipitation, MM = Missing Value Source: NWS Daily Summary

Daily Weather History Graph

Daily Weather History Graph

Search for Another Location

Airport or City:

Trip Planner

Search our weather history database for the weather conditions in past years. The results will help you decide how hot, cold, wet, or windy it might be!

Date:

Astronomy

Feb. 24, 2008 Rise Set
Actual Time 6:40 AM EST 5:43 PM EST
Civil Twilight 6:13 AM EST 6:11 PM EST
Nautical Twilight 5:41 AM EST 6:43 PM EST
Astronomical Twilight 5:09 AM EST 7:14 PM EST
Moon 9:41 PM EST (2/24) 7:59 AM EST (2/24)
Length of Visible Light 11h 58m
Length of Day
11h 02m
Waning Gibbous, 87% of the Moon is Illuminated
Feb 24
Waning Gibbous
Feb 28
Last Quarter
Mar 7
New
Mar 14
First Quarter
Mar 21
Full

Hourly Weather History & Observations

Time (EST) Temp. Windchill Dew Point Humidity Pressure Visibility Wind Dir Wind Speed Gust Speed Precip Events Conditions
12:53 AM 25.0 °F 19.3 °F 12.9 °F 60% 30.12 in 10.0 mi North 4.6 mph - N/A   Clear
1:53 AM 21.9 °F - 14.0 °F 72% 30.13 in 10.0 mi Calm Calm - N/A   Clear
2:53 AM 18.0 °F - 14.0 °F 84% 30.13 in 10.0 mi Calm Calm - N/A   Clear
3:53 AM 16.0 °F - 12.9 °F 88% 30.13 in 10.0 mi Calm Calm - N/A   Clear
4:53 AM 14.0 °F - 10.9 °F 88% 30.17 in 9.0 mi Calm Calm - N/A   Clear
5:53 AM 12.9 °F - 10.0 °F 88% 30.18 in 10.0 mi Calm Calm - N/A   Clear
6:53 AM 10.9 °F - 8.1 °F 88% 30.18 in 10.0 mi Calm Calm - N/A   Clear
7:53 AM 17.1 °F - 12.0 °F 81% 30.20 in 10.0 mi Calm Calm - N/A   Clear
8:53 AM 25.0 °F - 17.1 °F 72% 30.22 in 10.0 mi Calm Calm - N/A   Clear
9:53 AM 28.9 °F 23.9 °F 15.1 °F 56% 30.21 in 10.0 mi Variable 4.6 mph - 0.03 in   Clear
10:53 AM 30.9 °F 23.5 °F 16.0 °F 54% 30.19 in 10.0 mi SSW 8.1 mph - 0.08 in   Clear
11:53 AM 34.0 °F 28.8 °F 17.1 °F 50% 30.17 in 10.0 mi Variable 5.8 mph - 0.10 in   Clear
12:53 PM 35.1 °F 31.0 °F 17.1 °F 48% 30.14 in 10.0 mi Variable 4.6 mph - 0.05 in   Clear
1:53 PM 37.0 °F 31.6 °F 18.0 °F 46% 30.12 in 10.0 mi Variable 6.9 mph - N/A   Clear
2:53 PM 37.0 °F 33.3 °F 17.1 °F 44% 30.09 in 10.0 mi Variable 4.6 mph - N/A   Clear
3:53 PM 37.9 °F 32.7 °F 17.1 °F 43% 30.08 in 10.0 mi Variable 6.9 mph - N/A   Clear
4:53 PM 37.0 °F 34.5 °F 18.0 °F 46% 30.06 in 10.0 mi SSW 3.5 mph - N/A   Clear
5:53 PM 35.1 °F - 18.0 °F 50% 30.06 in 10.0 mi Calm Calm - N/A   Clear
6:53 PM 28.9 °F - 21.0 °F 72% 30.06 in 10.0 mi Calm Calm - N/A   Clear
7:53 PM 26.1 °F - 21.0 °F 81% 30.06 in 10.0 mi Calm Calm - N/A   Clear
8:53 PM 24.1 °F - 19.9 °F 84% 30.05 in 10.0 mi Calm Calm - N/A   Clear
9:53 PM 21.9 °F - 19.0 °F 89% 30.05 in 8.0 mi Calm Calm - N/A   Clear
10:53 PM 19.9 °F - 17.1 °F 89% 30.03 in 9.0 mi Calm Calm - N/A   Clear
11:53 PM 21.0 °F - 18.0 °F 88% 30.01 in 8.0 mi Calm Calm - N/A   Clear